Weather in Klyuchevaya

Russia / Sverdlovsk Oblast     56°49′48″N   58°28′38″E
temp.,
°C
wind,
m/s
gust,
m/s
humid.,
%
clouds,
%
prec.,
mm/h
press.,
hPa
HPBL,
m
5 august, thu
thu523:00+18ese118319 0.3 101021
02:00+17ese118166 0.1 101114
05:00+17se228356 0.1 100923
08:00+20ese117499 0.0 100977
11:00+20nne117794 0.0 100920
14:00+27wsw3445100 0.0 1008991
17:00+25wnw245519 0.1 1008837
20:00+21nw488374 0.1 1009501
6 august, fri
fri623:00+16nw3997100 1.6 1010451
02:00+14nw4795100 0.0 1010532
05:00+13nw3891100 0.1 1011661
08:00+14nw488686 0.0 1011480
11:00+19nw58573 0.0 10121188
14:00+22nw574719 0.0 10121621
17:00+21nw57477 0.0 10121745
20:00+17nw49590 0.0 1014601
7 august, sat
sat723:00+11nw22760 0.0 101530
02:00+9wnw22880 0.0 101523
05:00+8wnw22955 0.0 101621
08:00+12nw3773100 0.0 1016329
11:00+17nw57526 0.0 10151123
14:00+18wnw575076 0.0 10151501
17:00+19nw57447 0.0 10151760
20:00+16nw49614 0.0 1016533
8 august, sun
sun823:00+10nw11890 0.0 101710
02:00+8wnw22950 0.0 101823
05:00+7wnw269811 0.0 1019152
08:00+11nw498319 0.0 1019495
11:00+16nw56560 0.0 1018969
14:00+20nnw57480 0.0 10181309
17:00+20nnw46495 0.0 10181446
20:00+17nw26725 0.0 1019148
9 august, mon
mon923:00+11nw21945 0.0 102013
02:00+10nw11968 0.0 102111
05:00+8nw119757 0.0 102110
08:00+12nw268524 0.0 1021277
11:00+19nnw355437 0.0 1020824
14:00+23nnw4543100 0.0 10191180
17:00+23nnw4548100 0.0 10191166
20:00+18nw2375100 0.0 102053